Weather History for KHRO - July, 2013

Change the Weather History Date:

Monday, July 15, 2013

  Actual Average Record
Temperature  
Mean Temperature 78 °F 78 °F  
Max Temperature 90 °F 89 °F 110 °F (1936)
Min Temperature 66 °F 68 °F 49 °F (1967)
Degree Days  
Heating Degree Days 0 0  
Month to date heating degree days 0 0  
Since 1 June heating degree days 5 6  
Since 1 July heating degree days 0 0  
Cooling Degree Days 13 13  
Month to date cooling degree days 170 191  
Year to date cooling degree days 622 595  
Since 1 June cooling degree days 476 456  
Growing Degree Days 27 (Base 50)    
Moisture  
Dew Point 67 °F    
Average Humidity 73    
Maximum Humidity 100    
Minimum Humidity 45    
Precipitation  
Precipitation 0.58 in 0.10 in 2.34 in (1917)
Month to date precipitation 1.61 1.51  
Year to date precipitation 20.69 23.75  
Snow  
Snow 0.00 in 0.00 in - ()
Month to date snowfall 0.0 0.0  
Since 1 June snowfall 0.0 0.0  
Since 1 July snowfall 0.0 0.0  
Snow Depth 0.00 in    
Sea Level Pressure  
Sea Level Pressure 30.14 in    
Wind  
Wind Speed 5 mph (SE)    
Max Wind Speed 16 mph    
Max Gust Speed 21 mph    
Visibility 7 miles    
Events Fog , Rain , Thunderstorm    
T = Trace of Precipitation, MM = Missing Value Source: NWS Daily Summary

Daily Weather History Graph

Daily Weather History Graph

Search for Another Location

Airport or City:

Trip Planner

Search our weather history database for the weather conditions in past years. The results will help you decide how hot, cold, wet, or windy it might be!

Date:

Astronomy

Jul. 15, 2013 Rise Set
Actual Time 6:06 AM CDT 8:29 PM CDT
Civil Twilight 5:37 AM CDT 8:59 PM CDT
Nautical Twilight 5:00 AM CDT 9:35 PM CDT
Astronomical Twilight 4:20 AM CDT 10:15 PM CDT
Moon 1:12 PM CDT (7/15) No Moon Set
Length of Visible Light 15h 22m
Length of Day
14h 23m
Waxing Crescent, 45% of the Moon is Illuminated
Jul 15
Waxing Crescent
Jul 15
First Quarter
Jul 22
Full
Jul 29
Last Quarter
Aug 6
New

Hourly Weather History & Observations

Time (CDT) Temp. Heat Index Dew Point Humidity Pressure Visibility Wind Dir Wind Speed Gust Speed Precip Events Conditions
12:53 AM 72.0 °F - 61.0 °F 68% 30.07 in 10.0 mi ESE 9.2 mph - N/A   Clear
1:53 AM 70.0 °F - 63.0 °F 78% 30.06 in 10.0 mi East 6.9 mph - N/A   Clear
2:53 AM 69.1 °F - 64.0 °F 84% 30.07 in 10.0 mi ESE 5.8 mph - N/A   Clear
3:53 AM 66.9 °F - 63.0 °F 87% 30.08 in 10.0 mi Calm Calm - N/A   Clear
4:53 AM 66.9 °F - 64.0 °F 90% 30.09 in 10.0 mi Calm Calm - N/A   Partly Cloudy
5:06 AM 66.2 °F - 62.6 °F 88% 30.13 in 10.0 mi Calm Calm - N/A   Mostly Cloudy
5:14 AM 66.2 °F - 64.4 °F 94% 30.13 in 10.0 mi Calm Calm - N/A   Mostly Cloudy
5:53 AM 68.0 °F - 66.0 °F 93% 30.10 in 10.0 mi East 4.6 mph - N/A   Overcast
6:53 AM 69.1 °F - 66.0 °F 90% 30.13 in 7.0 mi ESE 6.9 mph - N/A   Overcast
7:35 AM 69.8 °F - 66.2 °F 88% 30.19 in 1.8 mi SE 8.1 mph - N/A   Overcast
7:53 AM 69.1 °F - 68.0 °F 96% 30.15 in 1.5 mi ESE 8.1 mph - N/A   Overcast
8:04 AM 69.8 °F - 68.0 °F 94% 30.20 in 2.5 mi SE 6.9 mph - N/A   Overcast
8:13 AM 69.8 °F - 68.0 °F 94% 30.20 in 4.0 mi ESE 6.9 mph - N/A   Overcast
8:33 AM 69.8 °F - 66.2 °F 88% 30.21 in 7.0 mi SSE 6.9 mph - N/A   Overcast
8:53 AM 71.1 °F - 66.9 °F 87% 30.17 in 10.0 mi SE 6.9 mph - N/A   Overcast
9:05 AM 71.6 °F - 66.2 °F 83% 30.21 in 10.0 mi SE 5.8 mph - N/A   Overcast
9:53 AM 75.0 °F - 66.9 °F 76% 30.17 in - SE 6.9 mph - N/A   Overcast
10:53 AM 80.1 °F 82.3 °F 66.9 °F 64% 30.16 in - SE 11.5 mph - N/A   Overcast
11:39 AM 82.4 °F 84.6 °F 66.2 °F 58% 30.20 in - SSE 9.2 mph - N/A   Overcast
11:53 AM 82.0 °F 84.1 °F 66.0 °F 58% 30.15 in - Variable 4.6 mph - N/A   Mostly Cloudy
12:53 PM 87.1 °F 88.9 °F 64.9 °F 48% 30.13 in - SE 8.1 mph - N/A   Scattered Clouds
1:53 PM 88.0 °F 89.3 °F 64.0 °F 45% 30.11 in 10.0 mi South 8.1 mph 18.4 mph N/A   Partly Cloudy
2:53 PM 88.0 °F 89.3 °F 64.0 °F 45% 30.10 in 10.0 mi SE 9.2 mph - N/A   Mostly Cloudy
3:53 PM 88.0 °F 90.3 °F 66.0 °F 48% 30.10 in 10.0 mi ESE 9.2 mph - N/A   Mostly Cloudy
4:53 PM 86.0 °F 86.8 °F 63.0 °F 46% 30.09 in 10.0 mi SSE 8.1 mph - N/A   Mostly Cloudy
5:10 PM 75.2 °F - 69.8 °F 83% 30.15 in 3.0 mi SSW 12.7 mph 19.6 mph 0.04 in Rain , Thunderstorm Rain
5:13 PM 73.4 °F - 69.8 °F 88% 30.16 in 1.8 mi SSW 13.8 mph 19.6 mph 0.13 in Rain , Thunderstorm Heavy Rain
5:20 PM 73.4 °F - 69.8 °F 88% 30.15 in 0.5 mi West 15.0 mph 19.6 mph 0.31 in Fog , Rain , Thunderstorm Heavy Rain
5:26 PM 71.6 °F - 68.0 °F 88% 30.17 in 0.8 mi Variable 4.6 mph 19.6 mph 0.36 in Rain , Thunderstorm Heavy Rain
5:28 PM 71.6 °F - 69.8 °F 94% 30.17 in 1.0 mi ESE 3.5 mph - 0.40 in Rain , Thunderstorm Heavy Rain
5:41 PM 71.6 °F - 68.0 °F 88% 30.16 in 1.2 mi NE 8.1 mph - 0.55 in Rain , Thunderstorm Heavy Rain
5:50 PM 71.6 °F - 68.0 °F 88% 30.16 in 3.0 mi East 8.1 mph - 0.57 in Rain , Thunderstorm Light Rain
5:53 PM 72.0 °F - 68.0 °F 87% 30.12 in 4.0 mi East 8.1 mph - 0.58 in Rain , Thunderstorm Light Rain
6:02 PM 71.6 °F - 68.0 °F 88% 30.15 in 7.0 mi Calm Calm - 0.00 in Rain Light Rain
6:53 PM 72.0 °F - 69.1 °F 91% 30.12 in 10.0 mi SE 3.5 mph - 0.00 in   Overcast
7:53 PM 73.0 °F - 69.1 °F 87% 30.13 in - ESE 4.6 mph - N/A   Overcast
8:53 PM 72.0 °F - 69.1 °F 91% 30.15 in 4.0 mi Calm Calm - N/A   Scattered Clouds
9:53 PM 71.1 °F - 69.1 °F 93% 30.17 in 10.0 mi Calm Calm - N/A   Clear
10:53 PM 71.1 °F - 69.1 °F 93% 30.18 in 10.0 mi Calm Calm - N/A   Clear
11:53 PM 70.0 °F - 69.1 °F 97% 30.19 in 8.0 mi Calm Calm - N/A   Clear